Location: Ottawa
(45.4170°N, 75.7000°W)
Time: 18:31:40
(UTC-05:00)

Daily predictions for brighter satellites

Satellite Brightness Start Highest point End
(mag) Time Altitude Azimuth Time Altitude Azimuth Time Altitude Azimuth
Cosmos 2061 Rocket 4.3 17:51:59 10° N 17:58:15 79° W 18:04:32 10° S
Cosmos 2333 4.4 17:53:19 10° NNW 17:59:02 84° WSW 18:04:39 10° SSE
Cosmos 2219 Rocket 2.2 17:57:43 10° NNW 18:03:27 72° ENE 18:09:04 10° SSE
Cosmos 1867 4.2 17:58:36 10° NW 18:04:02 64° WSW 18:09:25 10° SSE
Shenzhou-11 Module 3.0 18:04:37 10° W 18:07:28 41° S 18:10:20 10° ESE
YAOGAN 1 2.8 18:03:54 10° S 18:08:13 76° WSW 18:12:33 10° NNW
Okean 1-7 3.1 18:03:52 10° N 18:08:19 88° E 18:12:42 10° S
Cosmos 2219 3.2 18:02:49 10° S 18:08:21 63° ESE 18:13:56 10° NNE
Tiangong 2 1.6 18:06:37 10° WSW 18:09:44 52° S 18:12:50 10° E
Envisat 4.3 18:06:25 10° ESE 18:09:53 19° ENE 18:13:21 10° NNE
Resurs 01 Rocket 3.6 18:09:59 10° ENE 18:10:45 10° ENE 18:11:30 10° NE
Cosmos 1371 Rocket 4.1 18:05:47 10° NNW 18:11:00 61° ENE 18:16:14 10° SSE
Lacrosse 5 2.0 18:06:28 10° NW 18:11:29 59° NE 18:16:28 10° ESE
Cosmos 2237 Rocket 2.5 18:07:25 10° NNW 18:12:51 46° ENE 18:18:14 10° SE
SL-16 R/B 3.4 18:08:44 10° N 18:13:13 23° NE 18:17:41 10° E
NOSS 0 Rocket 4.0 18:07:30 10° NNW 18:13:40 66° ENE 18:19:50 10° SE
Cosmos 2227 Rocket 3.0 18:09:45 10° SSE 18:14:30 29° ESE 18:19:17 10° NE
SKYMED 2 3.6 18:13:39 10° NNE 18:18:02 86° ESE 18:22:22 10° SSW
Cosmos 1733 Rocket 3.9 18:14:20 10° SSE 18:18:02 28° E 18:21:45 10° NNE
USA 215 3.7 18:14:00 10° ENE 18:20:11 43° SE 18:26:19 10° SSW
FREGAT/IRIS 3.6 18:18:12 10° SE 18:20:43 26° ENE 18:23:15 10° NNE
H-2A R/B 3.0 18:20:39 10° SSE 18:24:27 50° ENE 18:28:15 10° N
Cosmos 2233 Rocket 4.0 18:18:23 10° N 18:24:41 66° E 18:30:53 10° SSE
NOSS 3-2 (C) 4.0 18:21:01 10° S 18:26:20 35° ESE 18:32:08 10° NE
HJ-1C 4.4 18:25:54 10° SE 18:28:47 26° ENE 18:31:43 10° NNE
Cosmos 2297 Rocket 2.9 18:24:10 10° SSE 18:29:08 32° ESE 18:34:06 10° NE
DNEPR-1 R/B 4.4 18:26:52 10° S 18:30:27 28° ESE 18:33:20 14° ENE
SeaSat 1 2.7 18:26:20 10° SE 18:31:02 46° NE 18:35:45 10° NNW
SPOT 3 Rocket 3.6 18:27:21 10° SSE 18:32:33 87° ENE 18:37:48 10° NNW
CZ-2D R/B 4.4 18:29:34 10° ESE 18:32:45 24° ENE 18:35:56 10° NNE
FENGYUN 3A 4.1 18:28:38 10° S 18:33:59 66° WSW 18:39:23 10° NNW
NOAA 12 4.4 18:31:06 10° S 18:36:24 73° WSW 18:41:44 10° NNW
Cosmos 1464 Rocket 4.5 18:30:50 10° N 18:36:26 36° ENE 18:42:00 10° SE
ALOS 3.2 18:33:36 10° S 18:38:09 53° W 18:42:45 10° NNW
Cosmos 2056 Rocket 3.6 18:35:13 10° NNW 18:40:40 86° ENE 18:46:06 10° SSE
Cosmos 2333 Rocket 2.6 18:35:18 10° NNW 18:40:58 70° WSW 18:46:34 10° SSE
Okean 3 4.0 18:38:04 10° N 18:41:54 34° ENE 18:45:43 10° SE
Cosmos 1812 3.1 18:39:37 10° N 18:43:17 39° ENE 18:46:56 10° SSE
Abrixas rocket 4.0 18:41:47 10° W 18:44:34 28° SW 18:47:19 10° SSE
COSMOS 2428 4.4 18:41:45 10° NW 18:46:58 37° WSW 18:52:08 10° S
Cosmos 1452 Rocket 3.9 18:42:09 10° N 18:47:09 41° ENE 18:51:49 11° SE
Cosmos 44 4.0 18:43:32 10° NNW 18:48:09 37° NE 18:50:58 21° E
Lacrosse 4 Rocket 4.5 18:46:52 10° WNW 18:49:48 19° WSW 18:52:46 10° SSW
Cosmos 2285 Rocket 4.0 18:44:13 10° SSW 18:50:32 79° ESE 18:56:56 10° NNE
Cosmos 2082 3.9 18:48:17 10° S 18:53:36 45° ESE 18:58:57 10° NE
USA 267 3.5 18:50:11 19° E 18:54:49 52° NNE 19:01:08 10° NW
Cosmos 405 2.9 18:55:11 10° S 18:58:36 57° E 19:02:05 10° NNE
Cosmos 2084 Rocket 3.4 18:55:11 10° SSW 18:59:30 60° SE 19:01:51 25° NE
Spot 2 Rocket 4.4 18:59:09 25° E 19:00:12 27° ENE 19:04:26 10° N
Cosmos 1378 Rocket 3.9 18:57:03 10° N 19:01:14 41° ENE 19:04:22 16° SE
BREEZE-M DEB (TANK) 1.6 19:00:20 10° WNW 19:02:43 59° NNE 19:03:07 49° ENE
Cosmos 1238 4.3 19:01:57 10° S 19:05:06 84° E 19:08:53 10° N
EO 1 Del DPAF 4.0 19:01:51 10° N 19:05:36 53° WNW 19:09:20 10° SSW
CENTAUR R/B 3.2 19:01:08 10° S 19:06:14 29° ESE 19:07:41 27° E
ERS-2 2.5 19:02:38 10° S 19:06:18 64° WSW 19:09:59 10° NNW
FengYun 1-2 T 4.4 19:02:28 10° S 19:07:59 73° WSW 19:13:30 10° NNW
CZ-4C R/B 4.2 19:03:25 10° NNW 19:08:24 21° NNE 19:11:16 17° NE
Cosmos 2034 Rocket 4.2 19:02:57 10° N 19:09:06 47° ENE 19:15:13 10° SSE
Cosmos 1980 4.2 19:05:48 10° NNW 19:11:26 62° WSW 19:17:01 10° S
Cosmos 1420 Rocket 4.1 19:06:42 10° NNW 19:11:53 54° ENE 19:14:47 25° SE
Cosmos 1891 Rocket 4.4 19:08:32 10° N 19:14:46 61° ENE 19:20:50 10° SSE
SJ-6B 2.7 19:17:18 10° S 19:21:02 79° WSW 19:24:52 10° NNW
Iridium 4 Rocket 3.2 19:18:33 10° N 19:23:45 77° E 19:28:27 10° S
Thor Agena Rocket 3.4 19:20:32 10° NNE 19:25:41 73° ESE 19:30:44 10° S
NOSS 3-2 (A) 3.6 19:20:11 10° SW 19:26:10 74° NW 19:32:16 13° NE
Cosmos 158 Rocket 3.9 19:21:49 10° S 19:26:33 50° ESE 19:27:13 47° ENE
Meteor 1-14 Rocket 4.2 19:24:38 10° S 19:30:23 86° E 19:36:18 10° NNE
ATLAS 3B R/B 3.5 19:23:45 10° WSW 19:30:43 50° NW 19:37:26 10° NNE
Okean 1 3.8 19:27:28 10° N 19:30:28 44° NNE 19:30:28 44° NNE
Cosmos 1633 3.1 19:29:12 10° S 19:31:46 45° S 19:31:46 45° S
Aureole 3 4.4 19:28:31 10° SSW 19:34:53 71° W 19:39:55 10° N
Cosmos 468 4.4 19:33:15 10° S 19:38:25 60° ESE 19:39:22 51° ENE
USA 32 3.9 19:33:20 10° S 19:38:34 74° E 19:43:48 10° N
Cosmos 44 Rocket 3.3 19:35:56 10° NNW 19:40:58 71° NE 19:41:32 64° E
Resurs 1-3 3.4 19:44:57 78° NE 19:44:57 78° NE 19:49:13 10° N
Cosmos 1908 Rocket 3.6 19:40:25 10° S 19:44:53 80° W 19:49:24 10° N
Tiangong 2 3.0 19:43:19 10° W 19:45:13 27° WSW 19:45:13 27° WSW
Resurs 01 Rocket 1.5 19:46:35 81° NE 19:46:35 81° NE 19:50:55 10° NNW
Envisat 3.3 19:43:21 10° S 19:48:23 65° WSW 19:53:28 10° NNW
USA 186 4.3 19:55:02 16° NNW 19:55:02 16° NNW 19:55:53 10° NNW
H-2A R/B 4.2 19:55:59 14° NNE 19:55:59 14° NNE 19:57:01 10° NNE
Lacrosse 5 3.5 19:49:49 10° WNW 19:54:13 30° SW 19:56:56 19° S
Cosmos 2237 Rocket 4.0 19:51:53 10° NW 19:56:40 29° WSW 20:01:26 10° SSW
SL-16 R/B 2.4 19:52:14 10° NNW 19:57:52 68° WSW 20:00:05 37° S
Cosmos 2227 Rocket 3.1 19:52:52 10° SW 19:58:19 47° WNW 20:03:47 10° NNE
Tsikada Rocket 3.9 19:54:03 10° S 20:00:25 74° E 20:06:51 10° NNE
USA 215 3.5 20:00:22 34° NE 20:03:24 67° NNW 20:09:51 10° WSW
SeaSat 1 4.3 20:04:31 10° SSW 20:08:42 27° WSW 20:12:54 10° NW
Cosmos 921 Rocket 4.0 20:04:46 10° NNW 20:07:56 45° NNW 20:07:56 45° NNW
Cosmos 1975 Rocket 4.2 20:05:44 10° NNW 20:08:25 36° NNW 20:08:25 36° NNW
Cosmos 1939 Rocket 4.3 20:12:02 35° NW 20:12:02 35° NW 20:14:38 10° NNW
Cosmos 2297 Rocket 3.3 20:07:41 10° SW 20:13:02 42° NW 20:18:18 11° NNE
Cosmos 1603 4.3 20:10:08 10° NNW 20:14:17 45° N 20:14:17 45° N
NOSS 3-2 (C) 4.2 20:11:04 10° WSW 20:16:59 51° NW 20:20:34 26° NNE
Meteor 1-19 Rocket 4.3 20:11:53 10° NNW 20:16:46 70° NNW 20:16:46 70° NNW
USA 267 3.4 20:37:32 62° SSW 20:37:46 62° SW 20:44:15 10° NW
CENTAUR R/B 3.2 20:50:14 10° SW 20:54:59 51° W 20:54:59 51° W
CZ-4C R/B 3.6 20:51:40 10° NNW 20:56:28 42° N 20:56:28 42° N
